Kuiper-00164

operational
NORAD ID: 67134 Int'l Des: 2025-301 Owner: KUIP Country: US Constellation: kuiper
LEOCIRCULAR

Kuiper-00164について

説明を読み込み中...

リアルタイム位置

3D地球を読み込み中...

次回通過

高度履歴

Altitude vs Time

uPlot chart will show altitude changes over time

軌道要素

1 67134C 25301B 25350.84835648 .00013837 00000+0 38774-3 0 3507
2 67134 51.8717 105.3009 0003092 89.7280 147.9066 15.35994995 11
Epoch: Dec 16, 2025 • Age: 76 hours

現在のステータス

高度 461.1 km
速度 7.64 km/s
衛星直下点 48.97°N, 62.24°E
打ち上げ日 Dec 16, 2025
運用期間 3 days
タイプ internet

技術仕様

分類 Payload
質量 490.00 kg
乾燥質量 490.00 kg
総質量 490.00 kg
長さ 1.80 m
直径 0.70 m
スパン 5.00 m
形状 Box + 2 pan
製造者 KUIP
バスタイプ Kuiper
フェーズステータス In Orbit
所有者/国 KUIP/US

大規模コンステレーション

Loading constellations...